Regional Weather Roundup
Issued by NWS Sioux Falls, SD

Home | Current Version | Previous Version | Text Only | Print | Product List | Glossary On
Versions: 1 2 3 4 5 6 7 8 9 10 11 12 13 14 15 16 17 18 19 20 21 22 23 24 25 26 27 28 29 30 31 32 33 34 35 36 37 38 39 40 41 42 43 44 45 46 47 48 49 50
000
ASUS43 KFSD 220810
RWRFSD

WEATHER ROUNDUP FOR SE SOUTH DAKOTA/SW MINNESOTA/NW IOWA
NATIONAL WEATHER SERVICE SIOUX FALLS SD
200 AM CST MON DEC 22 2014

NOTE: "FAIR" INDICATES FEW OR NO CLOUDS BELOW 12,000 FEET WITH NO
SIGNIFICANT WEATHER AND OR OBSTRUCTIONS TO VISIBILITY.


SDZ038>040-050-052>070-220900-
SOUTHEAST SOUTH DAKOTA

CITY           SKY/WX    TMP DP  RH WIND       PRES   REMARKS
CHAMBERLAIN    MOCLDY    32  30  92 NW5       29.44S WCI  28
HURON          CLOUDY    36  34  92 S12       29.43F
MADISON        CLOUDY    36  36 100 S17G23    29.48F
MITCHELL       LGT RAIN  37  36  96 S14       29.46F FOG
SIOUX FALLS    LGT RAIN  40  38  93 S15       29.51F
WINNER         LGT RAIN  38  35  89 W15       29.44S
YANKTON        CLOUDY    39  37  93 S10       29.51F
$$

MNZ071-072-080-081-089-090-097-098-220900-
SOUTHWEST MINNESOTA

CITY           SKY/WX    TMP DP  RH WIND       PRES   REMARKS
FAIRMONT       CLOUDY    39  36  87 S16       29.63F
JACKSON        CLOUDY    37  37 100 S14       29.60F FOG
LUVERNE        LGT RAIN  39  37  93 S10       29.54F
MARSHALL       CLOUDY    39  36  87 S15       29.54F
MONTEVIDEO     CLOUDY    37  37 100 S8        29.56S
PIPESTONE      DRZL/FOG  37  37 100 S13       29.51F VSB 1/2
REDWOOD FALLS  CLOUDY    38  37  97 S17       29.59S FOG
TRACY          CLOUDY    39  38  96 S13G21    29.55F FOG
WINDOM         DRIZZLE   39  37  93 S13       29.58F
WORTHINGTON    CLOUDY    39 -11  11 S17       29.56F
$$

IAZ001>003-012>014-020>022-031-032-NEZ013-014-SDZ071-220900-
NORTHWEST IOWA

CITY           SKY/WX    TMP DP  RH WIND       PRES   REMARKS
CHEROKEE       CLOUDY    40  40 100 S13       29.59F FOG
DENISON        CLOUDY    41  41 100 S16G23    29.59F FOG
ESTHERVILLE    CLOUDY    38  38 100 S20       29.61F FOG
LE MARS        CLOUDY    43  41  93 S15G22    29.56F
ORANGE CITY    CLOUDY    41  39  93 S12       29.55F FOG
SHELDON        MIX PCPN  39  39 100 S17G23    29.55F
SIOUX CITY     CLOUDY    42  41  96 SE9       29.56F FOG
SPENCER        CLOUDY    40  38  93 S15       29.59F FOG
STORM LAKE     CLOUDY    39  39 100 S17       29.60F FOG
$$

ABBREVIATIONS USED IN REMARKS
   TC - TEMPERATURE IN CELSIUS
  WCI - WIND CHILL INDEX
   HX - HEAT INDEX
  VSB - VISIBILITY



USA.gov is the U.S. government's official web portal to all federal, state and local government web resources and services.